EZY57TL LEAL-EGPH

Flight info

Callsign EZY57TL
Flight time 2h 40m
Altitude 38000
Route MITOS DCT COMPI DCT DIKUT DCT ASDIR DCT OSLAP DCT USKAR DCT MOPAS DCT GIROM DCT GONUP DCT TUPAR DCT RALIX DCT IBSUS DCT AKIKI DCT GARMI UN867 VASUX DCT TNT UN57 POL UN601 RIBEL DCT ABEVI DCT INPIP
Aircraft A20N/M-SDE2E3FGHIJ1RWXYZ/LB1

Departure

Time 2026-05-05 16:37
Airport Alicante-Elche Miguel Hernández Airport (LEAL)

Arrival

Time 2026-05-05 19:18
Airport Edinburgh Airport (EGPH)
Time Latitude Longitude Altitude Speed Heading
2026-05-05 15:57 38.28566 -0.55505 91 ft 0 kts 11°
2026-05-05 16:24 38.28516 -0.55512 92 ft 4 kts 355°
2026-05-05 16:25 38.28490 -0.55505 93 ft 4 kts 321°
2026-05-05 16:25 38.28480 -0.55486 92 ft 0 kts 280°
2026-05-05 16:32 38.28482 -0.55496 93 ft 3 kts 280°
2026-05-05 16:32 38.28488 -0.55551 94 ft 10 kts 275°
2026-05-05 16:32 38.28456 -0.55592 95 ft 8 kts 201°
2026-05-05 16:33 38.28392 -0.55621 98 ft 11 kts 211°
2026-05-05 16:33 38.28381 -0.55697 100 ft 11 kts 275°
2026-05-05 16:33 38.28392 -0.55813 103 ft 16 kts 280°
2026-05-05 16:33 38.28415 -0.55971 106 ft 20 kts 279°
2026-05-05 16:34 38.28446 -0.56171 108 ft 26 kts 279°
2026-05-05 16:34 38.28473 -0.56372 111 ft 18 kts 280°
2026-05-05 16:34 38.28494 -0.56532 118 ft 19 kts 279°
2026-05-05 16:34 38.28517 -0.56699 120 ft 19 kts 281°
2026-05-05 16:35 38.28541 -0.56861 130 ft 18 kts 281°
2026-05-05 16:35 38.28562 -0.57009 136 ft 16 kts 279°
2026-05-05 16:35 38.28580 -0.57149 142 ft 16 kts 279°
2026-05-05 16:35 38.28600 -0.57281 148 ft 15 kts 281°
2026-05-05 16:36 38.28618 -0.57411 152 ft 15 kts 278°
2026-05-05 16:36 38.28585 -0.57519 156 ft 14 kts 200°
2026-05-05 16:36 38.28495 -0.57516 157 ft 13 kts 178°
2026-05-05 16:36 38.28444 -0.57427 154 ft 19 kts 104°
2026-05-05 16:37 38.28375 -0.56970 133 ft 87 kts 99°
2026-05-05 16:37 38.28239 -0.55985 106 ft 137 kts 100°
2026-05-05 16:37 38.28072 -0.54651 301 ft 159 kts 102°
2026-05-05 16:37 38.27894 -0.53244 757 ft 162 kts 103°
2026-05-05 16:38 38.27711 -0.51860 1416 ft 156 kts 103°
2026-05-05 16:38 38.27840 -0.50495 1903 ft 162 kts 71°
2026-05-05 16:38 38.28386 -0.49157 2205 ft 181 kts 62°
2026-05-05 16:38 38.29098 -0.47718 2509 ft 203 kts 58°
2026-05-05 16:39 38.29913 -0.46134 2958 ft 224 kts 58°
2026-05-05 16:39 38.30818 -0.44391 3391 ft 249 kts 57°
2026-05-05 16:39 38.31769 -0.42463 3919 ft 270 kts 63°
2026-05-05 16:39 38.32502 -0.40187 4675 ft 280 kts 70°
2026-05-05 16:40 38.33135 -0.37823 5601 ft 285 kts 70°
2026-05-05 16:40 38.33799 -0.35413 6435 ft 292 kts 69°
2026-05-05 16:40 38.34517 -0.32971 7277 ft 297 kts 68°
2026-05-05 16:40 38.35280 -0.30495 8115 ft 303 kts 67°
2026-05-05 16:41 38.36212 -0.28079 8972 ft 306 kts 51°
2026-05-05 16:41 38.37781 -0.26266 9781 ft 305 kts 25°
2026-05-05 16:41 38.39775 -0.25351 10360 ft 312 kts
2026-05-05 16:41 38.41991 -0.24830 10631 ft 335 kts
2026-05-05 16:42 38.44396 -0.24350 11024 ft 352 kts
2026-05-05 16:42 38.46798 -0.23827 11766 ft 358 kts
2026-05-05 16:42 38.49264 -0.23239 12511 ft 364 kts
2026-05-05 16:42 38.51775 -0.22608 13276 ft 370 kts
2026-05-05 16:43 38.54319 -0.21952 13992 ft 376 kts
2026-05-05 16:43 38.56893 -0.21283 14669 ft 381 kts
2026-05-05 16:43 38.59505 -0.20603 15401 ft 385 kts
2026-05-05 16:43 38.62145 -0.19916 16087 ft 390 kts
2026-05-05 16:44 38.64817 -0.19220 16769 ft 395 kts
2026-05-05 16:44 38.67529 -0.18514 17383 ft 401 kts
2026-05-05 16:44 38.70275 -0.17799 18077 ft 405 kts
2026-05-05 16:44 38.73052 -0.17075 18635 ft 409 kts
2026-05-05 16:45 38.75855 -0.16345 19209 ft 413 kts
2026-05-05 16:45 38.78689 -0.15606 19800 ft 416 kts
2026-05-05 16:45 38.81542 -0.14866 20344 ft 421 kts
2026-05-05 16:45 38.84424 -0.14113 20892 ft 425 kts
2026-05-05 16:46 38.87333 -0.13351 21396 ft 429 kts
2026-05-05 16:46 38.90270 -0.12581 21964 ft 433 kts
2026-05-05 16:46 38.93232 -0.11805 22494 ft 436 kts
2026-05-05 16:46 38.96222 -0.11021 23008 ft 440 kts
2026-05-05 16:47 38.99238 -0.10231 23514 ft 444 kts
2026-05-05 16:47 39.02281 -0.09433 23951 ft 448 kts
2026-05-05 16:47 39.05340 -0.08629 24393 ft 451 kts
2026-05-05 16:47 39.08425 -0.07818 24819 ft 454 kts
2026-05-05 16:48 39.11527 -0.07002 25243 ft 457 kts
2026-05-05 16:48 39.14658 -0.06178 25665 ft 460 kts
2026-05-05 16:48 39.17803 -0.05349 26075 ft 463 kts
2026-05-05 16:48 39.20971 -0.04514 26486 ft 466 kts
2026-05-05 16:49 39.24157 -0.03673 26880 ft 469 kts
2026-05-05 16:49 39.27368 -0.02825 27273 ft 472 kts
2026-05-05 16:49 39.30602 -0.01970 27641 ft 475 kts
2026-05-05 16:49 39.33847 -0.01112 28014 ft 478 kts
2026-05-05 16:50 39.37101 -0.00046 28360 ft 485 kts 10°
2026-05-05 16:50 39.39252 0.00757 28588 ft 487 kts 10°
2026-05-05 16:50 39.42520 0.01965 28933 ft 490 kts
2026-05-05 16:50 39.45800 0.03172 29260 ft 492 kts 10°
2026-05-05 16:51 39.49096 0.04386 29613 ft 494 kts 10°
2026-05-05 16:51 39.52410 0.05609 29935 ft 497 kts 10°
2026-05-05 16:51 39.55745 0.06842 30226 ft 499 kts 10°
2026-05-05 16:51 39.59091 0.08081 30516 ft 501 kts 10°
2026-05-05 16:52 39.62456 0.09329 30816 ft 503 kts 10°
2026-05-05 16:52 39.65824 0.10580 31135 ft 504 kts 10°
2026-05-05 16:52 39.69235 0.11848 31507 ft 504 kts 10°
2026-05-05 16:52 39.72562 0.13087 31894 ft 503 kts 10°
2026-05-05 16:53 39.75971 0.14357 32291 ft 502 kts 10°
2026-05-05 16:53 39.79286 0.15593 32645 ft 502 kts 10°
2026-05-05 16:53 39.82676 0.16858 33010 ft 501 kts 10°
2026-05-05 16:53 39.86028 0.18110 33364 ft 500 kts 10°
2026-05-05 16:54 39.89376 0.19362 33713 ft 500 kts 10°
2026-05-05 16:54 39.92719 0.20613 34027 ft 499 kts 10°
2026-05-05 16:54 39.96048 0.21860 34315 ft 498 kts 10°
2026-05-05 16:54 39.99334 0.23093 34610 ft 497 kts 10°
2026-05-05 16:55 40.02657 0.24340 34897 ft 496 kts 10°
2026-05-05 16:55 40.05974 0.25586 35171 ft 496 kts 10°
2026-05-05 16:55 40.09281 0.26830 35428 ft 495 kts 10°
2026-05-05 16:55 40.12594 0.28078 35684 ft 494 kts 10°
2026-05-05 16:56 40.15892 0.29321 35938 ft 493 kts 10°
2026-05-05 16:56 40.19188 0.30567 36178 ft 493 kts 10°
2026-05-05 16:56 40.22479 0.31813 36416 ft 492 kts 11°
2026-05-05 16:56 40.25772 0.33062 36649 ft 491 kts 10°
2026-05-05 16:57 40.29054 0.34302 36876 ft 491 kts 10°
2026-05-05 16:57 40.32332 0.35541 37067 ft 491 kts 10°
2026-05-05 16:57 40.35654 0.36799 37246 ft 491 kts 10°
2026-05-05 16:57 40.38890 0.38028 37453 ft 490 kts 10°
2026-05-05 16:58 40.42160 0.39270 37676 ft 488 kts 10°
2026-05-05 16:58 40.45423 0.40510 37846 ft 488 kts 10°
2026-05-05 16:58 40.51937 0.42991 37911 ft 487 kts 11°
2026-05-05 16:59 40.58444 0.45475 37916 ft 487 kts 11°
2026-05-05 16:59 40.64949 0.47964 37911 ft 487 kts 11°
2026-05-05 17:00 40.71453 0.50458 37912 ft 487 kts 11°
2026-05-05 17:00 40.77951 0.52954 37905 ft 486 kts 11°
2026-05-05 17:01 40.84436 0.55450 37913 ft 486 kts 11°
2026-05-05 17:01 40.90940 0.57957 37906 ft 486 kts 11°
2026-05-05 17:02 40.97423 0.60464 37907 ft 484 kts 11°
2026-05-05 17:02 41.03920 0.62849 37913 ft 481 kts
2026-05-05 17:03 41.10512 0.63383 37907 ft 473 kts 355°
2026-05-05 17:03 41.17099 0.63603 37915 ft 474 kts 355°
2026-05-05 17:04 41.23693 0.63908 37905 ft 474 kts 356°
2026-05-05 17:04 41.30289 0.64249 37911 ft 475 kts 356°
2026-05-05 17:05 41.36891 0.64595 37901 ft 475 kts 356°
2026-05-05 17:05 41.43495 0.64941 37897 ft 475 kts 356°
2026-05-05 17:06 41.50097 0.65287 37901 ft 475 kts 356°
2026-05-05 17:06 41.56697 0.65633 37901 ft 475 kts 356°
2026-05-05 17:07 41.63307 0.65980 37900 ft 475 kts 356°
2026-05-05 17:07 41.69918 0.66328 37905 ft 476 kts 356°
2026-05-05 17:08 41.76543 0.66678 37893 ft 477 kts 356°
2026-05-05 17:08 41.83184 0.67029 37896 ft 478 kts 356°
2026-05-05 17:09 41.89839 0.67382 37880 ft 479 kts 356°
2026-05-05 17:09 41.96503 0.67737 37887 ft 480 kts 357°
2026-05-05 17:10 42.03193 0.68093 37903 ft 481 kts 357°
2026-05-05 17:10 42.09845 0.68448 37920 ft 482 kts 357°
2026-05-05 17:11 42.16595 0.68810 37921 ft 483 kts 357°
2026-05-05 17:11 42.23307 0.69170 37913 ft 481 kts 357°
2026-05-05 17:12 42.29987 0.69530 37916 ft 481 kts 357°
2026-05-05 17:12 42.36669 0.69889 37930 ft 481 kts 357°
2026-05-05 17:13 42.43345 0.70251 37932 ft 480 kts 357°
2026-05-05 17:13 42.49976 0.70609 37941 ft 480 kts 358°
2026-05-05 17:14 42.56629 0.70970 37952 ft 479 kts 357°
2026-05-05 17:14 42.63283 0.71329 37960 ft 480 kts 358°
2026-05-05 17:15 42.69949 0.71692 37958 ft 478 kts 358°
2026-05-05 17:15 42.76617 0.72055 37972 ft 479 kts 358°
2026-05-05 17:16 42.83250 0.72419 37972 ft 477 kts 358°
2026-05-05 17:16 42.89892 0.72783 37982 ft 478 kts 358°
2026-05-05 17:17 42.96539 0.73148 37978 ft 478 kts 358°
2026-05-05 17:17 43.03177 0.73513 38162 ft 477 kts 358°
2026-05-05 17:18 43.06486 0.73696 37957 ft 472 kts 358°
2026-05-05 17:18 43.09750 0.73878 37982 ft 469 kts 358°
2026-05-05 17:18 43.16307 0.74237 37977 ft 473 kts 358°
2026-05-05 17:19 43.22891 0.74601 37981 ft 473 kts 358°
2026-05-05 17:19 43.29463 0.74966 37980 ft 472 kts 358°
2026-05-05 17:20 43.36031 0.75331 37974 ft 472 kts 358°
2026-05-05 17:20 43.42584 0.75508 37974 ft 469 kts 353°
2026-05-05 17:21 43.49002 0.74281 37962 ft 463 kts 342°
2026-05-05 17:22 43.58178 0.70352 37958 ft 460 kts 338°
2026-05-05 17:22 43.64258 0.67610 37955 ft 460 kts 338°
2026-05-05 17:23 43.70338 0.64841 37952 ft 460 kts 338°
2026-05-05 17:23 43.76411 0.62059 37952 ft 460 kts 338°
2026-05-05 17:24 43.82494 0.59267 37951 ft 460 kts 338°
2026-05-05 17:24 43.88571 0.56471 37957 ft 460 kts 338°
2026-05-05 17:25 43.94655 0.53666 37957 ft 461 kts 338°
2026-05-05 17:25 44.00740 0.50855 37961 ft 461 kts 338°
2026-05-05 17:26 44.06820 0.48040 37963 ft 461 kts 338°
2026-05-05 17:26 44.12909 0.45215 37969 ft 461 kts 338°
2026-05-05 17:27 44.18993 0.42386 37968 ft 461 kts 338°
2026-05-05 17:27 44.25085 0.39547 37963 ft 461 kts 338°
2026-05-05 17:28 44.31171 0.36704 37957 ft 461 kts 338°
2026-05-05 17:28 44.37216 0.33875 37946 ft 461 kts 338°
2026-05-05 17:29 44.43299 0.31021 37942 ft 461 kts 338°
2026-05-05 17:29 44.49386 0.28159 37937 ft 461 kts 338°
2026-05-05 17:30 44.55471 0.25292 37935 ft 461 kts 338°
2026-05-05 17:30 44.61555 0.22419 37932 ft 461 kts 339°
2026-05-05 17:31 44.67642 0.19539 37932 ft 462 kts 339°
2026-05-05 17:31 44.73728 0.16652 37932 ft 462 kts 339°
2026-05-05 17:32 44.79821 0.13756 37931 ft 462 kts 339°
2026-05-05 17:32 44.85912 0.10854 37933 ft 462 kts 339°
2026-05-05 17:33 44.92002 0.07945 37930 ft 462 kts 339°
2026-05-05 17:33 44.98098 0.05028 37932 ft 462 kts 339°
2026-05-05 17:34 45.04190 0.02106 37935 ft 462 kts 339°
2026-05-05 17:34 45.09248 -0.00325 37934 ft 462 kts 339°
2026-05-05 17:35 45.15342 -0.03260 37932 ft 462 kts 339°
2026-05-05 17:35 45.21432 -0.06200 37930 ft 462 kts 339°
2026-05-05 17:36 45.27515 -0.09143 37923 ft 462 kts 339°
2026-05-05 17:36 45.33595 -0.12091 37924 ft 462 kts 339°
2026-05-05 17:37 45.39674 -0.15046 37920 ft 462 kts 339°
2026-05-05 17:37 45.45749 -0.18005 37915 ft 462 kts 339°
2026-05-05 17:38 45.51833 -0.20975 37911 ft 461 kts 339°
2026-05-05 17:38 45.57901 -0.23944 37908 ft 461 kts 339°
2026-05-05 17:39 45.63968 -0.26920 37907 ft 462 kts 339°
2026-05-05 17:39 45.70050 -0.29910 37903 ft 462 kts 339°
2026-05-05 17:40 45.76127 -0.32904 37902 ft 462 kts 339°
2026-05-05 17:40 45.82210 -0.35682 37896 ft 462 kts 341°
2026-05-05 17:41 45.88407 -0.38408 37894 ft 462 kts 341°
2026-05-05 17:41 45.94557 -0.41103 37888 ft 462 kts 341°
2026-05-05 17:42 46.00720 -0.43798 37889 ft 463 kts 341°
2026-05-05 17:42 46.06874 -0.46494 37891 ft 463 kts 341°
2026-05-05 17:43 46.13036 -0.49200 37885 ft 463 kts 341°
2026-05-05 17:43 46.19239 -0.51931 37887 ft 463 kts 341°
2026-05-05 17:44 46.25391 -0.54646 37887 ft 463 kts 341°
2026-05-05 17:44 46.31553 -0.57372 37888 ft 463 kts 341°
2026-05-05 17:45 46.37711 -0.60103 37878 ft 463 kts 341°
2026-05-05 17:45 46.43871 -0.62840 37876 ft 463 kts 341°
2026-05-05 17:46 46.50034 -0.65586 37879 ft 463 kts 341°
2026-05-05 17:46 46.56196 -0.68337 37871 ft 462 kts 342°
2026-05-05 17:47 46.62339 -0.71087 37871 ft 463 kts 342°
2026-05-05 17:47 46.68493 -0.73848 37867 ft 463 kts 342°
2026-05-05 17:48 46.74651 -0.76618 37871 ft 463 kts 342°
2026-05-05 17:48 46.80803 -0.79391 37871 ft 463 kts 342°
2026-05-05 17:49 46.86950 -0.82169 37870 ft 462 kts 342°
2026-05-05 17:49 46.93097 -0.84953 37872 ft 463 kts 342°
2026-05-05 17:50 46.99253 -0.87748 37875 ft 463 kts 342°
2026-05-05 17:50 47.05401 -0.90547 37873 ft 463 kts 342°
2026-05-05 17:51 47.11557 -0.93357 37874 ft 463 kts 342°
2026-05-05 17:51 47.17710 -0.96171 37881 ft 463 kts 342°
2026-05-05 17:52 47.23859 -0.98990 37878 ft 463 kts 342°
2026-05-05 17:52 47.30009 -1.01817 37884 ft 463 kts 342°
2026-05-05 17:53 47.36163 -1.04653 37880 ft 463 kts 342°
2026-05-05 17:53 47.39340 -1.06119 37882 ft 463 kts 342°
2026-05-05 17:54 47.44386 -1.08452 37885 ft 464 kts 342°
2026-05-05 17:54 47.50576 -1.11153 37884 ft 463 kts 347°
2026-05-05 17:55 47.56949 -1.12455 37887 ft 462 kts 355°
2026-05-05 17:55 47.63353 -1.13359 37890 ft 463 kts 354°
2026-05-05 17:56 47.69768 -1.14274 37890 ft 463 kts 354°
2026-05-05 17:56 47.76172 -1.15172 37894 ft 462 kts 355°
2026-05-05 17:57 47.82566 -1.16066 37894 ft 461 kts 354°
2026-05-05 17:57 47.89003 -1.16968 37894 ft 462 kts 354°
2026-05-05 17:58 47.95458 -1.17874 37892 ft 462 kts 355°
2026-05-05 17:58 48.01824 -1.18771 37895 ft 462 kts 355°
2026-05-05 17:59 48.08225 -1.19675 37897 ft 462 kts 355°
2026-05-05 17:59 48.14628 -1.20581 37902 ft 463 kts 355°
2026-05-05 18:00 48.21048 -1.21492 37908 ft 463 kts 355°
2026-05-05 18:00 48.27463 -1.22405 37907 ft 463 kts 355°
2026-05-05 18:01 48.33876 -1.23319 37904 ft 462 kts 355°
2026-05-05 18:01 48.40275 -1.24234 37909 ft 462 kts 355°
2026-05-05 18:02 48.46688 -1.25153 37909 ft 463 kts 355°
2026-05-05 18:02 48.53085 -1.26071 37909 ft 462 kts 355°
2026-05-05 18:03 48.59496 -1.26995 37910 ft 462 kts 354°
2026-05-05 18:03 48.65887 -1.27919 37907 ft 461 kts 354°
2026-05-05 18:04 48.72284 -1.28846 37909 ft 462 kts 354°
2026-05-05 18:04 48.78685 -1.29775 37915 ft 461 kts 354°
2026-05-05 18:05 48.85080 -1.30706 37918 ft 462 kts 354°
2026-05-05 18:05 48.91476 -1.31640 37918 ft 461 kts 354°
2026-05-05 18:06 48.97847 -1.32572 37917 ft 461 kts 354°
2026-05-05 18:06 49.04221 -1.33507 37918 ft 459 kts 354°
2026-05-05 18:07 49.10578 -1.34441 37920 ft 459 kts 354°
2026-05-05 18:07 49.16934 -1.35379 37925 ft 459 kts 354°
2026-05-05 18:08 49.23288 -1.36318 37925 ft 458 kts 354°
2026-05-05 18:08 49.29644 -1.37260 37925 ft 458 kts 354°
2026-05-05 18:09 49.35982 -1.38201 37931 ft 458 kts 354°
2026-05-05 18:09 49.42325 -1.39147 37931 ft 458 kts 354°
2026-05-05 18:10 49.48673 -1.40095 37936 ft 458 kts 354°
2026-05-05 18:10 49.55014 -1.41044 37937 ft 458 kts 354°
2026-05-05 18:11 49.61375 -1.41453 37938 ft 457 kts
2026-05-05 18:11 49.67714 -1.40874 37938 ft 457 kts
2026-05-05 18:12 49.74058 -1.40340 37937 ft 456 kts
2026-05-05 18:12 49.79325 -1.39883 37934 ft 456 kts
2026-05-05 18:13 49.85701 -1.39318 37933 ft 455 kts
2026-05-05 18:13 49.92021 -1.38756 37931 ft 455 kts
2026-05-05 18:14 49.98338 -1.38192 37928 ft 454 kts
2026-05-05 18:14 50.04582 -1.36880 37918 ft 454 kts
2026-05-05 18:15 50.10807 -1.35345 37916 ft 453 kts
2026-05-05 18:15 50.17037 -1.33811 37910 ft 453 kts
2026-05-05 18:16 50.23272 -1.32257 37909 ft 454 kts
2026-05-05 18:16 50.29511 -1.30695 37909 ft 454 kts
2026-05-05 18:17 50.35711 -1.29139 37911 ft 455 kts
2026-05-05 18:17 50.41996 -1.27558 37915 ft 455 kts
2026-05-05 18:18 50.48261 -1.26132 37918 ft 456 kts
2026-05-05 18:18 50.54601 -1.26182 37917 ft 456 kts 354°
2026-05-05 18:19 50.60922 -1.27162 37923 ft 457 kts 354°
2026-05-05 18:19 50.67303 -1.28110 37930 ft 458 kts 354°
2026-05-05 18:20 50.73605 -1.29076 37939 ft 459 kts 354°
2026-05-05 18:20 50.79949 -1.30062 37945 ft 459 kts 354°
2026-05-05 18:21 50.86318 -1.31056 37937 ft 460 kts 354°
2026-05-05 18:21 50.92685 -1.32052 37938 ft 458 kts 354°
2026-05-05 18:22 50.99032 -1.33048 37937 ft 458 kts 354°
2026-05-05 18:22 51.05463 -1.34059 37936 ft 458 kts 353°
2026-05-05 18:23 51.11757 -1.35052 37939 ft 458 kts 353°
2026-05-05 18:23 51.18062 -1.36049 37938 ft 458 kts 353°
2026-05-05 18:24 51.24307 -1.37040 37937 ft 457 kts 353°
2026-05-05 18:24 51.30769 -1.38067 37935 ft 457 kts 353°
2026-05-05 18:25 51.37049 -1.39069 37935 ft 457 kts 353°
2026-05-05 18:25 51.43657 -1.40125 37935 ft 457 kts 353°
2026-05-05 18:26 51.49700 -1.41095 37939 ft 456 kts 353°
2026-05-05 18:26 51.56048 -1.42115 37943 ft 456 kts 353°
2026-05-05 18:27 51.62418 -1.43142 37964 ft 456 kts 353°
2026-05-05 18:27 51.68727 -1.44163 37964 ft 456 kts 353°
2026-05-05 18:28 51.78195 -1.45700 37964 ft 456 kts 353°
2026-05-05 18:28 51.84508 -1.46727 37966 ft 456 kts 353°
2026-05-05 18:29 51.90809 -1.47757 37965 ft 456 kts 353°
2026-05-05 18:29 51.97116 -1.48789 37966 ft 456 kts 353°
2026-05-05 18:30 52.03429 -1.49826 37989 ft 455 kts 353°
2026-05-05 18:30 52.09738 -1.50866 37993 ft 456 kts 353°
2026-05-05 18:31 52.16030 -1.51904 37980 ft 455 kts 353°
2026-05-05 18:31 52.22390 -1.52958 38000 ft 455 kts 353°
2026-05-05 18:32 52.28638 -1.54484 37989 ft 454 kts 346°
2026-05-05 18:32 52.34793 -1.56789 37980 ft 453 kts 346°
2026-05-05 18:33 52.40942 -1.59087 37990 ft 453 kts 346°
2026-05-05 18:33 52.47090 -1.61379 37995 ft 453 kts 346°
2026-05-05 18:34 52.53208 -1.63664 37996 ft 453 kts 346°
2026-05-05 18:34 52.59349 -1.65964 37990 ft 453 kts 346°
2026-05-05 18:35 52.65484 -1.68269 37995 ft 453 kts 346°
2026-05-05 18:35 52.71628 -1.70585 37995 ft 453 kts 346°
2026-05-05 18:36 52.77720 -1.72887 38001 ft 452 kts 345°
2026-05-05 18:36 52.83898 -1.75229 38005 ft 452 kts 345°
2026-05-05 18:37 52.90029 -1.77559 37999 ft 452 kts 345°
2026-05-05 18:37 52.96154 -1.79894 38005 ft 451 kts 345°
2026-05-05 18:38 53.02276 -1.82234 38002 ft 451 kts 345°
2026-05-05 18:38 53.08391 -1.84579 38001 ft 451 kts 345°
2026-05-05 18:39 53.14402 -1.86890 38008 ft 450 kts 345°
2026-05-05 18:39 53.20516 -1.89248 38012 ft 450 kts 345°
2026-05-05 18:40 53.26617 -1.91607 38016 ft 450 kts 345°
2026-05-05 18:40 53.32699 -1.93966 38015 ft 449 kts 345°
2026-05-05 18:41 53.38797 -1.96338 38017 ft 449 kts 345°
2026-05-05 18:41 53.44883 -1.98713 38017 ft 449 kts 345°
2026-05-05 18:42 53.50971 -2.01096 38019 ft 449 kts 345°
2026-05-05 18:42 53.57057 -2.03484 38025 ft 449 kts 345°
2026-05-05 18:43 53.63136 -2.05878 38023 ft 449 kts 345°
2026-05-05 18:43 53.69221 -2.08280 38037 ft 449 kts 345°
2026-05-05 18:44 53.75239 -2.11002 38039 ft 447 kts 338°
2026-05-05 18:44 53.81007 -2.14890 38042 ft 446 kts 336°
2026-05-05 18:45 53.86778 -2.18786 38045 ft 446 kts 336°
2026-05-05 18:45 53.92533 -2.22710 38051 ft 446 kts 335°
2026-05-05 18:46 53.98280 -2.26658 38054 ft 445 kts 335°
2026-05-05 18:46 54.04020 -2.30615 38055 ft 445 kts 335°
2026-05-05 18:47 54.09758 -2.34580 38053 ft 445 kts 335°
2026-05-05 18:47 54.15452 -2.38525 38058 ft 444 kts 335°
2026-05-05 18:48 54.21108 -2.42456 38054 ft 444 kts 335°
2026-05-05 18:48 54.25927 -2.45815 38054 ft 444 kts 335°
2026-05-05 18:49 54.31643 -2.49809 37923 ft 444 kts 335°
2026-05-05 18:49 54.34528 -2.51831 37651 ft 443 kts 335°
2026-05-05 18:49 54.37341 -2.53804 37387 ft 443 kts 335°
2026-05-05 18:50 54.40198 -2.55812 37118 ft 443 kts 335°
2026-05-05 18:50 54.43033 -2.57806 36750 ft 445 kts 335°
2026-05-05 18:50 54.45905 -2.59831 36043 ft 448 kts 335°
2026-05-05 18:50 54.48807 -2.61879 35357 ft 449 kts 335°
2026-05-05 18:51 54.51687 -2.63914 34627 ft 450 kts 334°
2026-05-05 18:51 54.54607 -2.65982 33809 ft 452 kts 334°
2026-05-05 18:51 54.57520 -2.68047 32987 ft 452 kts 334°
2026-05-05 18:51 54.60402 -2.70094 32206 ft 452 kts 334°
2026-05-05 18:52 54.63329 -2.72176 31391 ft 452 kts 334°
2026-05-05 18:52 54.66238 -2.74249 30547 ft 453 kts 334°
2026-05-05 18:52 54.69155 -2.76330 29717 ft 453 kts 334°
2026-05-05 18:52 54.72044 -2.78393 29197 ft 444 kts 334°
2026-05-05 18:53 54.74852 -2.80398 28731 ft 435 kts 334°
2026-05-05 18:53 54.77596 -2.82365 28155 ft 429 kts 335°
2026-05-05 18:53 54.80303 -2.84308 27595 ft 424 kts 335°
2026-05-05 18:53 54.83014 -2.86258 27027 ft 419 kts 335°
2026-05-05 18:54 54.85682 -2.88179 26473 ft 414 kts 335°
2026-05-05 18:54 54.88297 -2.90064 26318 ft 407 kts 335°
2026-05-05 18:54 54.90956 -2.91988 26227 ft 416 kts 335°
2026-05-05 18:54 54.93626 -2.93920 26131 ft 415 kts 335°
2026-05-05 18:55 54.96276 -2.95838 26032 ft 413 kts 335°
2026-05-05 18:55 54.98935 -2.97765 25629 ft 413 kts 335°
2026-05-05 18:55 55.01591 -2.99694 24872 ft 416 kts 335°
2026-05-05 18:55 55.04290 -3.01660 23927 ft 422 kts 335°
2026-05-05 18:56 55.06999 -3.03633 23168 ft 421 kts 335°
2026-05-05 18:56 55.09687 -3.05591 22497 ft 416 kts 335°
2026-05-05 18:56 55.12321 -3.07511 21621 ft 408 kts 335°
2026-05-05 18:56 55.14919 -3.09409 21037 ft 397 kts 335°
2026-05-05 18:57 55.17378 -3.11206 20925 ft 380 kts 334°
2026-05-05 18:57 55.19829 -3.13002 20809 ft 377 kts 334°
2026-05-05 18:57 55.22264 -3.14795 20693 ft 381 kts 334°
2026-05-05 18:57 55.24702 -3.16588 20585 ft 379 kts 334°
2026-05-05 18:58 55.27128 -3.18372 20355 ft 378 kts 334°
2026-05-05 18:58 55.29525 -3.20137 19820 ft 375 kts 334°
2026-05-05 18:58 55.31975 -3.21947 18630 ft 383 kts 334°
2026-05-05 18:58 55.34436 -3.23769 17497 ft 384 kts 334°
2026-05-05 18:59 55.36876 -3.25576 16574 ft 377 kts 334°
2026-05-05 18:59 55.39269 -3.27349 15692 ft 370 kts 334°
2026-05-05 18:59 55.41589 -3.29067 15354 ft 350 kts 334°
2026-05-05 18:59 55.43766 -3.30681 15145 ft 329 kts 334°
2026-05-05 19:00 55.45818 -3.32206 14996 ft 312 kts 334°
2026-05-05 19:00 55.47774 -3.33663 14889 ft 299 kts 334°
2026-05-05 19:00 55.49653 -3.35066 14780 ft 286 kts 334°
2026-05-05 19:00 55.51497 -3.36177 14674 ft 278 kts 349°
2026-05-05 19:01 55.53389 -3.35877 14569 ft 273 kts 16°
2026-05-05 19:01 55.54967 -3.34116 14440 ft 270 kts 44°
2026-05-05 19:01 55.55914 -3.31284 14188 ft 271 kts 73°
2026-05-05 19:01 55.56011 -3.27943 13952 ft 277 kts 102°
2026-05-05 19:02 55.55240 -3.24844 13694 ft 277 kts 129°
2026-05-05 19:02 55.53845 -3.22580 13423 ft 269 kts 153°
2026-05-05 19:02 55.52144 -3.21289 13156 ft 267 kts 162°
2026-05-05 19:02 55.50417 -3.20073 12889 ft 266 kts 161°
2026-05-05 19:03 55.48713 -3.18826 12629 ft 265 kts 160°
2026-05-05 19:03 55.47016 -3.17571 12363 ft 264 kts 162°
2026-05-05 19:03 55.45248 -3.17006 12104 ft 256 kts 188°
2026-05-05 19:03 55.43565 -3.17790 11840 ft 248 kts 213°
2026-05-05 19:04 55.42266 -3.19660 11589 ft 240 kts 237°
2026-05-05 19:04 55.41518 -3.22214 11331 ft 233 kts 258°
2026-05-05 19:04 55.41393 -3.25012 11079 ft 230 kts 279°
2026-05-05 19:04 55.41879 -3.27666 10835 ft 229 kts 300°
2026-05-05 19:05 55.42937 -3.29759 10592 ft 242 kts 323°
2026-05-05 19:05 55.44424 -3.31546 10435 ft 266 kts 324°
2026-05-05 19:05 55.45947 -3.33349 10387 ft 260 kts 325°
2026-05-05 19:05 55.47415 -3.35093 10231 ft 250 kts 324°
2026-05-05 19:06 55.48835 -3.36794 10002 ft 246 kts 324°
2026-05-05 19:06 55.50256 -3.38510 9866 ft 249 kts 324°
2026-05-05 19:06 55.51691 -3.40248 9743 ft 251 kts 324°
2026-05-05 19:06 55.53124 -3.41981 9595 ft 247 kts 324°
2026-05-05 19:07 55.54536 -3.43691 9464 ft 245 kts 324°
2026-05-05 19:07 55.55943 -3.45396 9332 ft 247 kts 324°
2026-05-05 19:07 55.57360 -3.47116 9186 ft 246 kts 324°
2026-05-05 19:07 55.58776 -3.48835 8880 ft 244 kts 324°
2026-05-05 19:08 55.60167 -3.50526 8535 ft 242 kts 324°
2026-05-05 19:08 55.61551 -3.52209 8193 ft 242 kts 324°
2026-05-05 19:08 55.62929 -3.53884 7955 ft 239 kts 324°
2026-05-05 19:08 55.64179 -3.55404 7627 ft 239 kts 324°
2026-05-05 19:09 55.65578 -3.57107 7282 ft 232 kts 324°
2026-05-05 19:09 55.66866 -3.58676 7108 ft 219 kts 324°
2026-05-05 19:09 55.68102 -3.60183 6762 ft 214 kts 324°
2026-05-05 19:09 55.69324 -3.61677 6316 ft 214 kts 324°
2026-05-05 19:10 55.70549 -3.63178 5901 ft 214 kts 325°
2026-05-05 19:10 55.71771 -3.64681 5596 ft 214 kts 326°
2026-05-05 19:10 55.73005 -3.66197 5293 ft 217 kts 326°
2026-05-05 19:10 55.74249 -3.67721 5083 ft 216 kts 327°
2026-05-05 19:11 55.75436 -3.69174 4943 ft 218 kts 327°
2026-05-05 19:11 55.76734 -3.70766 4818 ft 220 kts 327°
2026-05-05 19:11 55.77963 -3.72278 4684 ft 219 kts 328°
2026-05-05 19:11 55.79217 -3.73822 4547 ft 219 kts 328°
2026-05-05 19:12 55.80599 -3.74880 4434 ft 215 kts 359°
2026-05-05 19:12 55.82004 -3.74271 4361 ft 210 kts 33°
2026-05-05 19:12 55.83074 -3.72534 4261 ft 208 kts 52°
2026-05-05 19:12 55.83879 -3.70423 4161 ft 204 kts 60°
2026-05-05 19:13 55.84573 -3.68263 3992 ft 198 kts 60°
2026-05-05 19:13 55.85274 -3.66178 3767 ft 194 kts 60°
2026-05-05 19:13 55.85948 -3.64161 3575 ft 184 kts 60°
2026-05-05 19:13 55.86588 -3.62256 3312 ft 175 kts 60°
2026-05-05 19:14 55.87198 -3.60435 3077 ft 171 kts 60°
2026-05-05 19:14 55.87802 -3.58638 2846 ft 166 kts 61°
2026-05-05 19:14 55.88389 -3.56890 2615 ft 162 kts 61°
2026-05-05 19:14 55.88943 -3.55241 2387 ft 148 kts 62°
2026-05-05 19:15 55.89452 -3.53730 2182 ft 136 kts 62°
2026-05-05 19:15 55.89909 -3.52371 2006 ft 121 kts 62°
2026-05-05 19:15 55.90329 -3.51116 1845 ft 120 kts 62°
2026-05-05 19:15 55.90763 -3.49825 1678 ft 121 kts 62°
2026-05-05 19:16 55.91197 -3.48538 1507 ft 121 kts 62°
2026-05-05 19:16 55.91627 -3.47258 1332 ft 120 kts 62°
2026-05-05 19:16 55.92058 -3.45977 1148 ft 120 kts 62°
2026-05-05 19:16 55.92489 -3.44697 966 ft 123 kts 63°
2026-05-05 19:17 55.92916 -3.43392 803 ft 120 kts 63°
2026-05-05 19:17 55.93347 -3.42127 612 ft 119 kts 62°
2026-05-05 19:17 55.93783 -3.40846 466 ft 121 kts 62°
2026-05-05 19:17 55.94221 -3.39562 276 ft 122 kts 63°
2026-05-05 19:18 55.94654 -3.38270 126 ft 121 kts 63°
2026-05-05 19:18 55.95034 -3.37139 111 ft 76 kts 59°
2026-05-05 19:18 55.95192 -3.36670 113 ft 27 kts 60°
2026-05-05 19:18 55.95253 -3.36448 111 ft 12 kts 93°
2026-05-05 19:19 55.95225 -3.36389 111 ft 2 kts 143°
2026-05-05 19:19 55.95224 -3.36388 111 ft 1 kts 143°
2026-05-05 19:19 55.95199 -3.36360 112 ft 8 kts 149°
2026-05-05 19:19 55.95150 -3.36281 112 ft 10 kts 117°
2026-05-05 19:20 55.95123 -3.36140 110 ft 14 kts 107°
2026-05-05 19:20 55.95085 -3.35969 112 ft 16 kts 115°
2026-05-05 19:20 55.95018 -3.35840 110 ft 15 kts 181°
2026-05-05 19:20 55.94919 -3.35816 110 ft 14 kts 126°
2026-05-05 19:21 55.94879 -3.35668 110 ft 10 kts 120°
2026-05-05 19:21 55.94865 -3.35631 110 ft 0 kts 135°
2026-05-05 19:21 55.94863 -3.35632 110 ft 1 kts 158°
2026-05-05 19:21 55.94830 -3.35657 110 ft 5 kts 207°
2026-05-05 19:22 55.94801 -3.35685 112 ft 1 kts 209°
2026-05-05 19:22 55.94798 -3.35687 112 ft 1 kts 206°
2026-05-05 19:22 55.94797 -3.35688 112 ft 0 kts 205°
2026-05-05 19:35 55.94797 -3.35687 112 ft 0 kts 205°
2026-05-05 19:35 55.94797 -3.35688 112 ft 0 kts 205°
2026-05-05 19:36 55.94797 -3.35687 112 ft 0 kts 205°